Regional Weather Roundup
Issued by NWS

Home | Current Version | Previous Version | Graphics & Text | Print | Product List | Glossary On
Versions: 1 2 3 4 5 6 7 8 9 10 11 12 13 14 15 16 17 18 19 20 21 22 23 24 25 26 27 28 29 30 31 32 33 34 35 36 37 38 39 40 41 42 43 44 45 46 47 48 49 50
789
ASUS43 KLMK 051402
RWRKY
KENTUCKY REGIONAL WEATHER ROUNDUP
NATIONAL WEATHER SERVICE LOUISVILLE KY
900 AM EST FRI FEB 05 2016

NOTE "FAIR" INDICATES FEW OR NO CLOUDS BELOW 12,000 FEET
WITH NO SIGNIFICANT WEATHER AND/OR OBSTRUCTIONS TO VISIBILITY.

KYZ001>023-026-027-061>063-070>075-051500-
WESTERN AND SOUTH CENTRAL KENTUCKY

CITY           SKY/WX    TMP DP  RH WIND       PRES   REMARKS
PADUCAH        SUNNY     30  23  75 SW3       30.43R
HENDERSON      SUNNY     30  21  69 S5        30.42S WCI  25
OWENSBORO      SUNNY     29  23  78 S8        30.45R WCI  21
HOPKINSVILLE   MOSUNNY   27  22  82 SE1       30.46R HAZE
BOWLING GREEN  SUNNY     27  23  85 CALM      30.48R
GLASGOW        NOT AVBL
$$

KYZ024-025-028>034-038-045-046-053-051500-
NORTH CENTRAL KENTUCKY

CITY           SKY/WX    TMP DP  RH WIND       PRES   REMARKS
LOUISVILLE/SDF MOSUNNY   27  20  75 SE5       30.45R WCI  22
LOUISVILLE/LOU SUNNY     27  18  69 CALM      30.46R
FORT KNOX      SUNNY     25  19  77 SE2       30.42R
$$

KYZ035>037-039>044-047>052-055>060-089>105-051500-
NORTHEAST KENTUCKY

CITY           SKY/WX    TMP DP  RH WIND       PRES   REMARKS
LEXINGTON      SUNNY     25  20  81 CALM      30.45
COVINGTON      SUNNY     24  20  84 S7        30.43R WCI  16
FRANKFORT      SUNNY     24  18  77 CALM      30.44R
$$

KYZ054-064>069-076>088-106>120-051500-
SOUTHEAST KENTUCKY

CITY           SKY/WX    TMP DP  RH WIND       PRES   REMARKS
JACKSON        SUNNY     25  18  74 CALM      30.43R
LONDON         SUNNY     25  20  81 CALM      30.45R
SOMERSET       NOT AVBL
MIDDLESBORO    NOT AVBL
MONTICELLO     SUNNY     30  25  81 W8        30.48R WCI  22
$$





USA.gov is the U.S. government's official web portal to all federal, state and local government web resources and services.